Location: Waco, TX
(31.5480°N, 97.1670°W)
Time: 02:32:23
(UTC-05:00)

ISS - Pass Details

Date: 15 June 2018
Orbit: 402 x 406 km, 51.6° (Epoch: 20 June)

Event Time Altitude Azimuth Distance (km) Brightness Sun altitude
Rises 18:57:37 0° 323° (NW) 2,320 0.9 18.4°
Reaches altitude 10° 18:59:48 10° 332° (NNW) 1,457 -0.2 17.9°
Maximum altitude 19:02:51 36° 41° (NE) 655 -2.8 17.3°
Drops below altitude 10° 19:05:53 10° 110° (ESE) 1,449 -1.6 16.7°
Sets 19:08:03 0° 119° (ESE) 2,304 -0.6 16.2°
